Bettles, AK

2:51 PM AKDT on July 23, 2019 (GMT -0800)
Bettles

Weather History for PABT - May, 2019

Change the Weather History Date:

Wednesday, May 29, 2019

  Actual Average Record
Temperature  
Mean Temperature 53 °F -  
Max Temperature 70 °F 62 °F 80 °F (2011)
Min Temperature 36 °F 41 °F 30 °F (2003)
Degree Days  
Heating Degree Days 12    
Growing Degree Days 3 (Base 50)    
Moisture  
Dew Point 36 °F    
Average Humidity 52    
Maximum Humidity 89    
Minimum Humidity 17    
Precipitation  
Precipitation 0.00 in - - ()
Sea Level Pressure  
Sea Level Pressure 29.98 in    
Wind  
Wind Speed 1 mph (East)    
Max Wind Speed 6 mph    
Max Gust Speed -    
Visibility 10 miles    
Events      
Averages and records for this station are not official NWS values.
T = Trace of Precipitation, MM = Missing Value Source: NWS Daily Summary

Daily Weather History Graph

Daily Weather History Graph

Search for Another Location

Airport or City:

Astronomy

May. 29, 2019 Rise Set
Actual Time 3:00 AM AKDT 1:13 AM AKDT
Civil Twilight Sun does not set Sun does not set
Nautical Twilight Sun does not set Sun does not set
Astronomical Twilight Sun does not set Sun does not set
Moon 4:31 AM AKDT (5/29) 4:53 PM AKDT (5/29)
Length of Visible Light 24h 00m
Length of Day
22h 13m
Waning Crescent, 22% of the Moon is Illuminated
May 29
Waning Crescent
Jun 3
New
Jun 9
First Quarter
Jun 17
Full
Jun 25
Last Quarter

Hourly Weather History & Observations

Time (AKDT) Temp. Dew Point Humidity Pressure Visibility Wind Dir Wind Speed Gust Speed Precip Events Conditions
12:53 AM 46.0 °F 39.0 °F 76% 29.98 in 10.0 mi Calm Calm - N/A   Partly Cloudy
1:53 AM 39.9 °F 37.0 °F 89% 29.98 in 10.0 mi Calm Calm - N/A   Partly Cloudy
2:53 AM 37.9 °F 35.1 °F 89% 29.99 in 10.0 mi Calm Calm - N/A   Partly Cloudy
3:53 AM 37.0 °F 34.0 °F 89% 30.00 in 10.0 mi Calm Calm - N/A   Partly Cloudy
4:53 AM 37.0 °F 34.0 °F 89% 30.01 in 10.0 mi Calm Calm - N/A   Partly Cloudy
5:53 AM 42.1 °F 37.9 °F 85% 30.02 in 10.0 mi Calm Calm - N/A   Partly Cloudy
6:53 AM 46.9 °F 39.9 °F 77% 30.02 in 10.0 mi SSE 4.6 mph - N/A   Partly Cloudy
7:53 AM 50.0 °F 41.0 °F 71% 30.02 in 10.0 mi Calm Calm - N/A   Partly Cloudy
8:53 AM 53.1 °F 39.0 °F 59% 30.02 in 10.0 mi Calm Calm - N/A   Partly Cloudy
9:53 AM 55.9 °F 37.9 °F 51% 30.02 in 10.0 mi Calm Calm - N/A   Partly Cloudy
10:53 AM 60.1 °F 39.0 °F 46% 30.01 in 10.0 mi North 3.5 mph - N/A   Partly Cloudy
11:53 AM 63.0 °F 37.9 °F 40% 30.00 in 10.0 mi Calm Calm - N/A   Partly Cloudy
1:53 PM 66.9 °F 35.1 °F 31% 29.99 in 10.0 mi Calm Calm - N/A   Scattered Clouds
2:53 PM 68.0 °F 33.1 °F 27% 29.98 in 10.0 mi Calm Calm - N/A   Scattered Clouds
3:53 PM 66.0 °F 32.0 °F 28% 29.96 in 10.0 mi Calm Calm - N/A   Scattered Clouds
4:53 PM 69.1 °F 32.0 °F 25% 29.95 in 10.0 mi Calm Calm - N/A   Scattered Clouds
5:53 PM 69.1 °F 32.0 °F 25% 29.94 in 10.0 mi South 5.8 mph - N/A   Scattered Clouds
6:53 PM 69.1 °F 32.0 °F 25% 29.93 in 10.0 mi Calm Calm - N/A   Scattered Clouds
7:53 PM 69.1 °F 30.9 °F 24% 29.93 in 10.0 mi SW 4.6 mph - N/A   Scattered Clouds
8:53 PM 69.1 °F 33.1 °F 26% 29.93 in 10.0 mi East 3.5 mph - N/A   Scattered Clouds
9:53 PM 61.0 °F 37.0 °F 41% 29.94 in 10.0 mi Calm Calm - 0.00 in   Scattered Clouds
10:53 PM 59.0 °F 41.0 °F 51% 29.94 in 10.0 mi NNE 4.6 mph - N/A   Scattered Clouds
11:53 PM 55.0 °F 39.9 °F 57% 29.96 in 10.0 mi NE 3.5 mph - N/A   Scattered Clouds